{"data":{"norad_id":48230,"epoch":"2026-05-25T02:34:37.009056Z","epoch_age_seconds":62803,"freshness":"FRESH","line1":"1 48230U 21031W   26145.10737279  .00000088  00000+0  20388-3 0  9997","line2":"2 48230  87.8933 294.3307 0001697 102.9597 257.1722 13.14502270245205","mean_motion":13.1450227,"eccentricity":0.0001697,"inclination_deg":87.8933,"raan_deg":294.3307,"arg_perigee_deg":102.9597,"mean_anomaly_deg":257.1722,"bstar":0.00020388,"rev_number":24520,"period_min":109.54716723312,"perigee_km":1204.5054003573,"apogee_km":1207.0793859933,"semimajor_km":7583.9293931753,"source":"CELESTRAK","updated_at":"2026-05-25T13:38:22.437484Z"}}